Flag for Australia Weather past 2 weeks in Currie, Tasmania, Australia

Now
50 °F

Cool.


Feels Like: 44 °F
Forecast: 51 / 54 °F
Wind: 18 mph from West

Location: King Island Airport

Current Time: Aug 1, 2015 at 4:45:16 PM

Latest Report: Aug 1, 2015 at 4:00 PM


Visibility: N/A

Pressure: 29.88 "Hg

Humidity: 60%

Dew point: 37 °F

Location of CurrieLocation

Historic Weather in Currie — Graph

°F

Currie temperature yesterday

Maximum temperature yesterday: 51 °F (at 9:00 PM)
Minimum temperature yesterday: 47 °F (at 12:00 AM)
Average temperature yesterday: 49 °F

Past Weeks' High & Low Weather Summary

 TemperatureHumidityPressure
High57 °F (Jul 22, 12:00 AM)96% (Jul 19, 6:00 AM)30.50 "Hg (Jul 19, 6:00 AM)
Low41 °F (Jul 19, 4:00 AM)55% (Aug 1, 8:00 AM)29.57 "Hg (Jul 25, 7:00 PM)
Average50 °F77%30.11 "Hg
* Reported Jul 17 3:00 PM — Aug 1 3:00 PM, Currie, Weather by CustomWeather, © 2015

Note: Actual official high and low records may vary slightly from our data, if they occured in-between our weather recording intervals... More about our weather records

Advertising

Currie weather history for previous 24 hours

 ConditionsComfort  
Time TempWeatherWind HumidityBarometerVisibility
3:00 PM
Sat, Aug 1
51 °FOvercast.20 mph58%29.88 "HgN/A
1:00 PM49 °FCool.21 mph71%29.88 "HgN/A
12:00 PM50 °FOvercast.20 mph63%29.88 "HgN/A
11:00 AM48 °FCool.22 mph66%29.88 "HgN/A
10:00 AM49 °FCool.20 mph62%29.87 "HgN/A
9:00 AM49 °FPartly sunny.21 mph57%29.83 "HgN/A
8:00 AM47 °FCool.22 mph55%29.80 "HgN/A
7:00 AM48 °FCool.24 mph56%29.75 "HgN/A
6:00 AM47 °FOvercast.22 mph78%29.72 "HgN/A
5:00 AM47 °FCool.25 mph90%29.68 "HgN/A
4:00 AM47 °FCool.24 mph93%29.66 "HgN/A
3:00 AM51 °FFog.35 mph93%29.65 "HgN/A
2:00 AM51 °FCool.33 mph83%29.68 "HgN/A
1:00 AM52 °FCool.31 mph75%29.71 "HgN/A
12:00 AM51 °FOvercast.31 mph73%29.74 "HgN/A
11:00 PM
Fri, Jul 31
51 °FCool.29 mph71%29.78 "HgN/A
10:00 PM51 °FCool.31 mph73%29.81 "HgN/A
9:00 PM51 °FOvercast.31 mph66%29.85 "HgN/A
8:00 PM50 °FCool.29 mph65%29.89 "HgN/A
7:00 PM50 °FCool.24 mph67%29.90 "HgN/A
6:00 PM50 °FOvercast.24 mph68%29.92 "HgN/A
5:00 PM50 °FCool.24 mph69%29.93 "HgN/A
4:00 PM51 °FCool.25 mph69%29.93 "HgN/A
Weather by CustomWeather, © 2015

See weather overviewHow to use our weather pages